Probability
0 0 0 0 0 0 0 0 1 2 3 4 6 11 15 18 16 14 14 17 20 22 24 25 25 23 18 12 11 11 12 12 12 11 8 7 9 10 10 10 9 8 8 8
0 0 0 0 0 0 0 0 1 2 3 4 6 11 16 18 17 15 15 17 19 22 25 26 26 24 19 14 12 13 14 13 12 10 8 7 8 9 9 9 9 8 8 9
0 0 0 0 0 0 0 0 0 2 3 5 6 10 14 16 16 16 16 16 18 22 25 26 25 23 20 16 13 14 15 14 11 9 8 8 8 9 10 9 9 8 7 7
0 0 0 0 0 0 0 0 1 2 3 4 5 7 11 13 15 16 16 15 16 19 22 23 21 20 21 19 16 16 16 14 12 10 10 10 10 11 11 10 9 7 5 4
0 0 0 0 0 0 0 0 2 3 3 3 3 4 9 15 17 19 18 16 16 18 19 19 17 18 22 22 21 20 19 16 14 13 13 12 12 13 12 11 9 6 5 4
0 0 0 0 0 0 0 2 4 5 5 5 4 5 11 18 22 22 21 19 18 19 19 18 17 19 23 24 23 22 22 20 17 15 14 13 14 13 12 11 8 6 5 5
0 0 0 1 1 2 3 6 7 7 8 9 9 10 13 19 23 25 24 22 21 22 23 21 20 21 22 22 21 21 23 23 20 15 13 13 13 13 11 10 7 6 6 7
2 2 2 3 3 5 8 11 11 10 10 12 13 13 14 17 20 24 25 23 23 26 29 26 22 22 23 22 22 23 24 24 20 14 10 9 10 9 9 8 8 7 8 8
5 5 5 5 6 7 9 11 11 11 12 14 13 13 14 15 18 23 26 25 24 28 30 27 23 23 23 24 25 26 26 25 20 13 8 6 6 5 6 7 8 7 6 6
7 7 7 8 8 8 8 8 8 9 10 10 9 11 15 18 22 26 29 28 25 27 28 25 22 21 22 24 25 25 26 25 19 11 7 6 5 4 5 6 6 5 3 2
9 8 9 10 10 10 9 8 7 7 8 7 6 10 15 22 27 31 33 32 28 26 26 23 21 22 23 22 21 22 23 22 16 10 7 7 6 5 5 4 3 2 1 0
10 9 9 11 11 11 10 9 10 11 11 10 10 11 15 21 27 30 32 33 30 28 26 23 22 23 24 21 19 19 20 20 16 11 9 9 7 6 4 2 1 1 0 0
8 8 9 10 10 10 10 10 11 13 15 14 13 12 13 18 22 26 28 29 30 29 27 24 22 23 21 18 17 17 19 19 17 13 10 9 8 7 4 1 0 0 0 0
6 6 7 7 7 7 7 9 10 12 14 13 12 12 12 14 18 23 24 25 26 27 26 24 21 20 17 15 14 16 18 17 15 13 10 8 7 7 5 3 1 1 0 0
4 4 5 4 4 5 6 6 7 9 11 12 13 13 13 14 17 21 23 23 24 24 23 22 19 17 14 11 11 12 14 14 12 11 9 6 5 5 5 5 4 3 1 1
4 4 4 4 3 5 5 5 6 7 10 12 13 14 14 14 16 19 21 21 23 23 22 20 17 15 12 10 9 10 12 11 9 9 8 6 5 5 5 6 5 3 3 3
4 3 3 3 4 4 5 6 6 7 9 12 13 13 13 13 15 17 18 19 21 22 21 18 15 13 12 10 10 10 11 9 6 6 6 6 6 5 5 4 3 3 4 4
2 1 1 2 2 3 4 5 5 6 8 11 13 13 12 12 14 16 17 18 20 20 18 14 13 12 10 10 11 10 10 9 6 4 5 5 5 4 4 3 3 3 4 4
1 0 0 0 1 2 3 3 4 5 7 10 13 14 13 14 15 17 18 18 17 15 14 13 12 11 9 9 10 10 9 8 6 4 4 4 4 4 3 3 3 3 3 3
0 0 0 0 0 2 4 4 3 3 5 9 12 14 15 16 17 18 19 17 13 11 11 12 12 11 10 9 7 8 8 7 5 3 3 2 3 4 3 2 1 1 2 3
0 0 0 0 1 3 5 4 3 3 5 8 11 14 16 16 17 19 19 14 11 10 9 9 10 11 11 7 4 5 7 5 3 2 2 2 3 2 2 1 1 1 2 3
0 0 0 0 1 3 5 4 3 3 4 7 9 11 13 14 15 16 16 12 10 8 6 6 6 8 7 4 3 4 6 5 3 2 3 4 4 3 3 3 3 3 2 2
0 0 1 1 1 3 5 4 3 3 4 6 7 8 9 10 11 11 11 9 7 5 4 3 3 3 3 3 5 6 7 6 4 3 3 4 5 4 4 5 5 4 2 2
1 1 1 1 1 2 3 3 3 5 6 6 6 5 6 7 7 7 7 6 4 3 3 1 1 0 2 5 7 8 8 6 5 4 3 3 4 4 5 6 5 4 3 2
2 2 1 2 2 2 2 1 3 5 6 8 6 4 4 5 6 6 6 5 3 3 3 2 1 1 3 6 7 7 6 5 4 3 3 3 3 4 5 5 4 3 3 3
4 3 2 2 3 2 1 0 1 2 4 6 5 4 4 5 5 5 5 5 4 3 3 4 3 3 4 5 4 4 3 3 3 3 3 3 3 3 4 4 3 3 3 3
4 4 3 2 2 1 0 0 0 0 1 4 4 4 4 4 4 4 4 4 2 2 4 5 5 5 4 4 3 2 2 3 3 3 3 3 3 3 3 3 3 3 3 3
Wind_Speed
6 5 5 7 8 9 9 9 8 5 4 2 1 3 4 5 5 5 5 6 6 6 6 6 6 5 5 4 3 3 3 3 3 2 2 1 1 0 0 0 0 1 1 2
7 6 7 8 8 8 9 9 8 7 5 1 1 3 4 4 5 5 5 5 5 5 5 5 5 5 5 4 4 4 3 3 3 2 2 2 1 1 0 0 0 1 0 1
8 7 9 10 7 8 8 7 8 7 3 2 3 4 4 5 4 3 3 4 4 4 5 5 5 5 5 5 4 4 4 3 3 3 3 2 2 1 1 1 1 0 0 1
7 8 12 4 2 5 6 5 5 4 2 2 2 3 4 4 3 3 3 3 3 4 5 5 5 5 5 5 5 4 4 3 3 3 3 2 2 2 1 1 1 1 1 1
8 10 9 5 4 5 6 5 3 4 2 2 3 4 6 4 3 3 3 3 3 4 4 4 4 5 5 4 4 4 3 3 3 3 2 2 2 2 1 1 1 1 1 1
8 10 9 4 3 3 6 6 2 2 2 3 5 5 3 5 3 4 4 4 4 4 4 4 4 4 4 4 3 3 2 2 2 2 2 3 2 2 1 1 2 2 0 1
10 10 6 1 3 5 7 1 2 1 2 4 3 2 4 5 4 4 4 4 4 5 4 4 4 4 3 3 2 2 2 2 2 2 3 3 2 2 2 2 1 2 1 1
9 11 5 4 4 3 3 3 0 1 1 2 2 4 5 4 4 4 4 4 4 4 4 4 4 4 3 2 1 1 2 2 2 2 2 2 2 2 2 2 3 2 2 2
4 1 5 2 1 3 2 1 1 0 1 2 3 4 4 4 4 4 4 4 4 4 4 4 4 3 3 2 2 2 2 2 1 1 1 1 2 2 3 3 3 2 2 2
2 2 2 2 1 1 2 2 1 0 1 2 3 4 4 4 3 3 3 4 3 4 4 3 3 3 2 2 2 2 2 2 2 2 2 2 2 2 3 3 3 3 3 3
4 2 2 2 1 2 2 1 1 1 1 2 3 3 3 3 3 2 3 3 3 3 3 3 3 3 3 3 2 2 2 2 2 2 2 2 3 2 3 2 2 3 3 3
2 1 2 0 1 1 0 0 1 1 2 2 2 3 2 2 2 2 2 2 2 2 2 2 3 3 2 3 3 3 3 2 2 2 2 3 3 2 1 2 1 1 2 4
2 0 1 0 0 0 1 0 1 1 2 2 2 2 2 2 2 2 2 3 3 2 2 3 3 2 2 2 2 3 3 2 2 2 3 3 3 3 3 3 5 5 4 3
1 1 2 2 1 1 1 1 1 1 1 2 2 2 2 2 2 2 2 2 2 2 2 2 2 2 2 2 2 3 4 2 3 3 3 2 3 3 3 3 3 3 5 6
3 4 3 2 2 2 2 2 2 2 1 1 1 1 1 1 1 1 1 1 1 2 2 2 2 2 1 2 3 4 4 2 2 2 2 2 2 3 3 2 2 2 2 4
2 3 3 3 3 3 3 4 3 2 2 1 1 1 1 1 1 1 1 2 3 3 2 2 2 2 2 3 3 4 3 2 3 3 3 2 2 2 2 2 3 3 3 2
4 4 4 4 3 3 2 2 2 2 2 1 1 1 1 2 2 2 2 2 3 3 3 3 3 2 3 4 4 4 3 3 5 4 3 3 2 2 2 3 3 3 2 1
4 4 4 3 3 3 2 1 1 1 1 0 0 1 2 2 2 1 1 1 2 2 3 3 3 3 4 4 4 4 4 3 3 3 3 3 3 3 3 3 3 3 2 2
3 3 2 2 2 2 2 1 1 0 1 1 1 1 2 2 2 2 2 2 3 3 3 3 3 5 4 3 4 4 4 3 3 3 3 2 3 3 3 3 3 3 3 3
2 2 2 1 1 1 1 1 1 1 1 1 2 2 2 2 2 2 3 3 2 2 1 1 3 4 4 3 3 4 3 3 3 3 3 3 3 3 3 3 3 3 3 3
1 2 2 2 1 1 1 1 1 2 2 2 3 3 3 2 3 3 3 3 1 1 2 2 3 3 2 1 4 4 3 3 3 3 3 3 3 3 3 3 3 3 3 3
1 1 2 1 1 1 1 1 1 2 2 3 3 3 3 3 3 3 3 3 1 1 2 3 2 1 0 2 4 3 3 3 3 3 3 3 3 3 3 3 3 3 3 3
1 1 1 1 1 1 1 2 2 2 3 3 3 3 3 3 3 3 3 2 1 1 3 1 2 3 1 4 3 3 3 3 3 3 3 3 3 3 3 3 3 3 3 4
1 1 1 1 1 1 1 2 2 2 2 3 3 3 3 2 2 2 2 2 1 2 2 2 3 3 4 3 3 3 3 3 3 3 3 2 2 2 2 3 3 4 4 4
1 1 1 2 2 2 1 2 2 2 3 2 2 2 2 1 2 1 1 1 2 3 2 3 4 4 4 2 2 2 2 2 3 3 2 2 3 2 2 3 3 4 4 4
2 2 1 2 2 2 2 2 2 1 1 1 1 1 1 0 0 1 1 1 1 1 1 1 2 3 2 2 1 1 1 1 2 3 3 3 3 3 3 3 4 4 4 4
3 2 2 2 2 2 2 2 2 2 1 1 1 1 1 1 1 1 1 1 1 1 1 1 1 1 1 1 1 1 1 1 2 3 2 3 3 3 3 3 3 3 3 3
Wind_Direction
260 268 248 239 236 230 244 265 277 281 277 295 207 175 166 169 164 156 156 160 163 169 162 162 162 166 172 170 167 166 174 178 173 177 177 188 199 201 142 41 36 29 12 359
234 229 237 239 235 233 237 253 260 264 269 358 131 155 159 166 167 166 165 163 159 162 161 164 167 171 170 174 174 175 183 182 176 186 187 192 192 195 182 171 21 34 14 325
240 226 241 235 231 238 239 246 260 263 261 154 170 166 169 165 168 167 159 153 158 162 165 165 169 173 175 173 175 178 181 183 185 192 188 190 192 172 191 189 148 113 294 316
244 231 242 250 236 246 247 248 253 263 245 195 182 171 157 154 156 150 140 143 154 164 162 166 167 170 174 170 174 178 182 185 189 197 194 189 190 183 189 177 167 182 277 306
244 241 237 215 218 228 235 230 245 250 222 176 150 167 151 143 145 140 133 136 154 164 159 160 160 157 163 169 169 180 191 198 201 207 202 197 198 199 191 187 203 227 243 293
237 252 250 209 163 226 244 223 185 235 212 188 194 223 142 135 145 131 123 128 146 154 154 154 152 153 164 169 173 188 192 200 196 203 206 205 198 203 195 215 228 245 283 304
240 247 244 108 137 199 233 213 110 229 216 203 206 335 91 124 131 124 123 127 140 151 149 147 151 156 169 170 182 184 179 186 189 198 207 196 186 198 211 227 243 268 271 259
235 244 234 102 168 223 9 27 109 185 200 203 140 108 120 128 134 133 129 130 137 141 140 146 154 164 176 176 165 165 180 188 183 192 220 174 180 201 215 230 224 231 242 254
253 283 69 94 61 40 13 344 307 217 169 164 160 154 146 141 145 146 142 138 143 143 142 148 151 168 183 160 158 175 178 178 163 171 211 204 211 213 218 228 245 243 247 256
221 162 109 112 79 23 3 336 305 199 143 162 168 157 149 142 146 151 148 147 153 159 157 150 156 173 171 153 170 187 184 178 171 179 200 197 235 239 248 251 254 259 266 272
221 197 185 157 90 31 27 10 84 130 136 158 157 149 139 140 141 148 150 151 157 168 171 165 168 179 168 152 182 199 193 192 197 200 212 219 229 254 263 273 312 293 292 291
244 165 252 152 44 11 14 117 125 139 138 125 131 135 129 126 126 152 163 162 171 183 177 164 170 174 162 171 191 209 212 211 221 220 210 231 221 208 170 239 150 211 306 308
312 330 336 14 231 226 261 195 168 160 150 135 117 121 130 133 147 168 180 186 190 196 184 167 168 170 165 176 198 220 232 224 241 236 223 231 235 239 224 196 200 205 215 241
242 221 223 211 229 250 234 200 164 134 121 123 117 124 135 144 151 174 194 205 202 195 178 162 170 174 176 181 210 236 244 212 236 239 240 239 244 250 252 249 223 207 197 204
225 230 237 232 232 222 210 193 190 171 146 137 125 137 161 174 184 193 194 198 186 186 184 180 190 199 196 212 224 241 248 238 242 259 254 252 253 256 256 258 264 257 218 179
234 225 217 211 214 218 213 210 213 204 188 168 157 172 200 192 184 185 186 177 190 197 196 210 219 217 216 230 235 235 234 226 249 254 249 245 245 256 262 254 255 262 270 274
225 219 214 215 216 220 226 233 232 204 187 186 184 184 194 193 194 196 192 195 203 202 207 216 228 231 233 234 243 249 244 202 208 241 247 250 249 252 261 264 263 263 273 316
242 246 242 232 225 225 221 221 219 198 206 234 220 223 223 219 226 218 215 225 236 230 233 236 236 233 232 235 244 257 252 237 222 237 242 252 262 259 258 258 265 270 272 219
252 250 245 232 227 233 233 227 237 248 251 230 232 234 240 245 243 234 232 230 236 241 239 236 224 239 237 229 243 243 249 244 233 237 245 239 250 257 262 269 276 280 287 293
230 224 221 218 213 220 218 208 206 223 245 253 249 242 244 249 244 234 236 240 252 293 280 241 228 241 241 216 241 249 248 250 248 242 245 247 254 264 269 269 269 278 284 285
192 197 204 195 186 234 259 246 236 242 245 243 250 252 255 250 236 237 243 246 207 266 257 213 228 231 234 222 232 250 247 247 247 246 245 247 250 257 265 274 282 286 287 291
257 236 231 227 239 271 271 258 250 246 248 250 254 259 258 246 235 239 243 264 252 149 242 227 217 107 68 254 245 253 253 251 250 251 252 260 263 264 267 274 279 284 290 293
267 249 238 232 248 264 259 260 252 243 248 256 255 257 259 263 259 249 239 223 227 197 248 261 81 114 206 244 253 258 263 269 270 264 254 253 262 270 273 275 278 282 289 292
256 243 243 220 215 227 250 270 274 270 261 253 244 245 248 244 242 258 275 138 158 221 245 112 138 179 224 243 254 259 265 274 274 273 272 268 267 272 278 280 281 281 284 287
265 256 243 221 225 232 232 236 231 232 243 245 240 229 243 265 288 301 299 215 170 226 225 158 179 208 229 243 244 252 265 297 312 308 299 291 284 276 275 279 284 290 295 298
262 265 262 257 266 258 243 240 241 236 240 253 269 269 277 294 299 289 259 222 202 222 263 218 189 214 244 250 247 249 258 243 253 264 276 277 279 283 285 289 291 291 293 296
251 247 236 241 241 248 250 242 243 244 247 261 284 292 291 281 260 265 265 253 221 226 263 277 273 251 254 250 245 246 249 256 263 267 273 277 279 277 277 278 285 290 292 294